| time (UTC) | temp F | wind direction | speed MPH | gust MPH | rain 1hr in | rain 24hr in | rain mn in | humidity % | barometer mb |
| 20260903064106 | 68 | 125 | 3.0 | 6.0 | 0.00 | 0.00 | 0.00 | 66 | 1022.4 |
| 20260903061107 | 65 | 134 | 4.0 | 6.0 | 0.00 | 0.00 | 0.00 | 72 | 1022.7 |
| 20260903054106 | 63 | 150 | 3.0 | 6.0 | 0.00 | 0.00 | 0.00 | 76 | 1022.9 |
| 20260903051107 | 62 | 144 | 2.0 | 5.0 | 0.00 | 0.00 | 0.00 | 77 | 1023.0 |
| 20260903044106 | 62 | 124 | 3.0 | 6.0 | 0.00 | 0.00 | 0.00 | 76 | 1023.0 |
| 20260903041106 | 62 | 134 | 3.0 | 6.0 | 0.00 | 0.00 | 0.00 | 76 | 1023.0 |
| 20260903031107 | 62 | 296 | 2.0 | 4.0 | 0.00 | 0.00 | 0.00 | 77 | 1023.0 |
| 20260903021106 | 63 | 288 | 2.0 | 5.0 | 0.00 | 0.00 | 0.00 | 75 | 1021.9 |
| 20260903014106 | 63 | 127 | 4.0 | 9.0 | 0.00 | 0.00 | 0.00 | 74 | 1021.9 |
| 20260903011107 | 63 | 132 | 5.0 | 9.0 | 0.00 | 0.00 | 0.00 | 75 | 1021.9 |
| 20260903004107 | 63 | 137 | 6.0 | 9.0 | 0.00 | 0.00 | 0.00 | 75 | 1021.9 |
| 20260903001506 | 63 | 123 | 6.0 | 8.0 | 0.00 | 0.00 | 0.00 | 75 | 1021.9 |
| 20260902234107 | 63 | 131 | 5.0 | 8.0 | 0.00 | 0.00 | 0.00 | 74 | 1021.9 |
| 20260902224107 | 64 | 110 | 3.0 | 5.0 | 0.00 | 0.00 | 0.00 | 73 | 1021.8 |
| 20260902221107 | 64 | 104 | 2.0 | 3.0 | 0.00 | 0.00 | 0.00 | 72 | 1021.7 |
| 20260902214107 | 66 | 111 | 1.0 | 4.0 | 0.00 | 0.00 | 0.00 | 69 | 1021.6 |
| 20260902211107 | 67 | 163 | 2.0 | 5.0 | 0.00 | 0.00 | 0.00 | 66 | 1021.5 |
| 20260902204108 | 68 | 124 | 4.0 | 7.0 | 0.00 | 0.00 | 0.00 | 65 | 1020.4 |
| 20260902201107 | 68 | 140 | 5.0 | 8.0 | 0.00 | 0.00 | 0.00 | 63 | 1020.3 |
| 20260902194107 | 69 | 133 | 3.0 | 5.0 | 0.00 | 0.00 | 0.00 | 62 | 1021.3 |
| 20260902191107 | 70 | 131 | 4.0 | 7.0 | 0.00 | 0.00 | 0.00 | 61 | 1020.1 |
| 20260902184107 | 70 | 145 | 3.0 | 8.0 | 0.00 | 0.00 | 0.00 | 60 | 1020.1 |
| 20260902181107 | 72 | 202 | 1.0 | 3.0 | 0.00 | 0.00 | 0.00 | 57 | 1019.9 |
| 20260902174107 | 74 | 219 | 1.0 | 3.0 | 0.00 | 0.00 | 0.00 | 55 | 1018.7 |
| 20260902171107 | 75 | 265 | 3.0 | 5.0 | 0.00 | 0.00 | 0.00 | 52 | 1018.6 |
| 20260902164107 | 76 | 262 | 3.0 | 5.0 | 0.00 | 0.00 | 0.00 | 50 | 1018.4 |
| 20260902161107 | 78 | 316 | 4.0 | 10.0 | 0.00 | 0.00 | 0.00 | 49 | 1018.3 |
| 20260902154107 | 78 | 329 | 7.0 | 12.0 | 0.00 | 0.00 | 0.00 | 47 | 1018.3 |
| 20260902151107 | 78 | 333 | 6.0 | 13.0 | 0.00 | 0.00 | 0.00 | 46 | 1018.3 |
| 20260902144107 | 78 | 339 | 8.0 | 14.0 | 0.00 | 0.00 | 0.00 | 47 | 1019.3 |
| 20260902141107 | 78 | 321 | 8.0 | 13.0 | 0.00 | 0.00 | 0.00 | 47 | 1019.4 |
| 20260902134106 | 77 | 323 | 9.0 | 15.0 | 0.00 | 0.00 | 0.00 | 48 | 1019.4 |
| 20260902131107 | 77 | 322 | 8.0 | 14.0 | 0.00 | 0.00 | 0.00 | 48 | 1019.5 |
| 20260902124106 | 76 | 326 | 8.0 | 14.0 | 0.00 | 0.00 | 0.00 | 48 | 1019.5 |
| 20260902121107 | 77 | 319 | 8.0 | 13.0 | 0.00 | 0.00 | 0.00 | 48 | 1019.4 |
| 20260902114107 | 77 | 316 | 8.0 | 15.0 | 0.00 | 0.00 | 0.00 | 50 | 1019.4 |
| 20260902111107 | 76 | 319 | 6.0 | 14.0 | 0.00 | 0.00 | 0.00 | 51 | 1019.5 |
| 20260902104107 | 76 | 335 | 5.0 | 10.0 | 0.00 | 0.00 | 0.00 | 52 | 1020.6 |
| 20260902101107 | 75 | 319 | 5.0 | 9.0 | 0.00 | 0.00 | 0.00 | 53 | 1020.7 |
| 20260902094107 | 73 | 317 | 4.0 | 7.0 | 0.00 | 0.00 | 0.00 | 55 | 1020.8 |
| 20260902091106 | 74 | 354 | 2.0 | 5.0 | 0.00 | 0.00 | 0.00 | 52 | 1020.8 |
| 20260902084106 | 73 | 98 | 2.0 | 5.0 | 0.00 | 0.00 | 0.00 | 55 | 1020.9 |
| 20260902081106 | 70 | 115 | 3.0 | 7.0 | 0.00 | 0.00 | 0.00 | 59 | 1021.2 |
| 20260902074107 | 69 | 105 | 5.0 | 8.0 | 0.00 | 0.00 | 0.00 | 63 | 1021.3 |
| 20260902071308 | 66 | 116 | 4.0 | 7.0 | 0.00 | 0.00 | 0.00 | 66 | 1021.6 |